Location: GMARS
(34.2910°N, 116.3838°W)
Time: 17:58:08
(UTC-07:00)

Daily predictions for brighter satellites

Satellite Brightness Start Highest point End
(mag) Time Altitude Azimuth Time Altitude Azimuth Time Altitude Azimuth
Cosmos 2184 Rocket 4.0 19:37:49 10° S 19:43:58 82° E 19:50:08 10° N
SJ-6B 3.4 19:41:51 10° SE 19:45:37 38° ENE 19:49:18 10° N
Cosmos 1300 3.6 19:47:42 10° SSW 19:51:26 55° W 19:55:12 10° N
NOSS 2-1 (E) 3.7 19:49:05 10° SW 19:52:39 63° WNW 19:56:28 10° NNE
Cosmos 1939 Rocket 4.2 19:49:51 10° ESE 19:52:42 20° ENE 19:55:35 10° NNE
deb Centaur AC-2 4.4 19:53:47 10° WSW 19:57:56 49° S 20:02:12 11° ESE
Cosmos 1437 4.3 19:57:30 10° SSW 20:00:30 40° W 20:03:32 10° N
Cosmos 2341 Rocket 4.4 19:58:13 10° SSE 20:04:08 42° E 20:10:02 10° NNE
NOSS 0 Rocket 4.2 19:58:30 10° S 20:04:16 44° ESE 20:10:05 10° NE
NOSS 3-3 (A) 3.9 20:00:33 10° SSW 20:06:28 88° ESE 20:12:55 10° NNE
NOSS 3-3 (C) 3.9 20:00:40 10° SSW 20:06:35 88° ESE 20:13:00 10° NNE
GPS 2-05 Rocket1 4.5 20:04:13 10° W 20:07:00 24° SSW 20:09:46 10° SSE
Cosmos 494 Rocket 4.3 20:03:09 10° NNW 20:08:21 72° WSW 20:13:34 10° S
FREGAT/IRIS 3.9 20:05:39 10° S 20:08:27 41° W 20:11:15 10° NNW
Cosmos 1980 4.1 20:03:40 10° S 20:08:52 39° ESE 20:14:07 10° NE
Cosmos 1666 Rocket 3.8 20:06:31 10° N 20:10:53 51° E 20:15:12 10° SSE
USA 186 1.8 20:12:04 20° ESE 20:12:58 28° ENE 20:14:58 10° NNE
ERS-2 2.2 20:09:55 10° SSE 20:13:30 58° ENE 20:17:07 10° N
Cosmos 1455 2.4 20:11:18 10° SSE 20:14:56 47° E 20:18:39 10° NNE
CZ-2D R/B 3.2 20:11:26 10° SSE 20:15:13 87° WSW 20:19:02 10° NNW
Cosmos 1151 Rocket 3.9 20:12:52 10° SSE 20:16:29 28° E 20:20:07 10° NNE
Resurs 1-3 4.2 20:13:11 12° SE 20:16:55 38° ENE 20:20:59 10° N
Cosmos 2333 Rocket 2.2 20:14:06 10° SSW 20:19:46 84° ESE 20:25:26 10° NNE
USA 267 4.4 20:15:54 10° E 20:20:01 17° ESE 20:24:05 10° SSE
Sich 1 2.9 20:16:28 10° N 20:20:44 76° E 20:24:58 10° S
ATLAS 2A CENTAUR R/B 3.8 20:17:32 10° W 20:22:31 22° SSW 20:24:24 13° SSE
Meteor 1-27 4.2 20:17:42 10° S 20:23:22 64° E 20:28:59 10° NNE
COSMOS 2428 3.8 20:19:28 10° SW 20:25:00 49° WNW 20:30:33 10° N
Meteor 2-21 Rocket 4.4 20:18:56 10° S 20:25:02 80° E 20:31:13 10° N
YAOGAN 6 2.6 20:22:57 14° SSE 20:25:56 58° ENE 20:29:30 10° N
Cosmos 1892 2.6 20:22:36 10° N 20:26:29 71° E 20:30:13 11° SSE
Cosmos 1844 Rocket 2.7 20:21:04 10° NNW 20:26:45 90° WSW 20:32:23 10° SSE
SL-8 Rocket 4.3 20:23:22 10° SSE 20:29:15 43° E 20:35:08 10° NNE
Envisat 3.3 20:24:25 10° S 20:29:27 69° WSW 20:34:31 10° NNW
Cosmos 2251 Rocket 3.7 20:28:14 10° NNW 20:33:37 79° WSW 20:38:56 10° S
Cosmos 1844 3.7 20:28:07 10° NNW 20:33:51 80° ENE 20:38:39 15° SSE
Cosmos 2219 Rocket 2.8 20:28:26 10° SSW 20:34:00 61° WNW 20:39:37 10° NNE
SJ-11-01 4.5 20:32:11 19° SE 20:35:22 51° ENE 20:39:54 10° N
Cosmos 2237 Rocket 2.1 20:30:37 10° S 20:36:08 65° ESE 20:41:42 10° NNE
Genesis I 4.1 20:34:58 10° NNW 20:38:45 35° NE 20:40:01 28° E
Cosmos 2056 Rocket 4.2 20:37:10 14° SSE 20:41:03 33° E 20:45:51 10° NE
Cosmos 1633 Rocket 3.1 20:38:31 10° N 20:42:52 80° W 20:46:57 12° S
Cosmos 2098 Rocket 3.7 20:47:46 32° ESE 20:48:46 35° E 20:52:33 10° NNE
Cosmos 2278 Rocket 2.6 20:44:08 10° N 20:49:33 44° ENE 20:51:44 30° ESE
Cosmos 1515 Rocket 3.5 20:45:51 10° S 20:50:17 80° E 20:54:46 10° N
NOAA 11 4.3 20:47:33 25° SE 20:50:44 59° ENE 20:56:08 10° N
Nadezhda 3 Rocket 4.4 20:46:55 10° NNW 20:53:09 65° W 20:59:25 10° S
Cosmos 2228 Rocket 3.0 20:51:22 10° S 20:55:45 88° WNW 21:00:08 10° N
Cosmos 1624 Rocket 4.1 20:53:53 15° S 20:57:58 51° ESE 21:03:00 10° NNE
Cosmos 864 Rocket 4.5 20:56:37 21° SSE 21:00:39 55° E 21:06:37 10° NNE
ASTRO E2 3.5 20:57:48 10° SW 21:00:58 34° S 21:00:58 34° S
Cosmos 1825 2.3 21:01:08 10° N 21:04:39 54° ENE 21:04:39 54° ENE
Sakura Rocket 3.5 21:04:35 10° WSW 21:08:34 38° S 21:08:34 38° S
ATLAS CENTAUR R/B 3.9 21:08:06 10° WSW 21:10:50 20° NW 21:13:40 10° N
OAO 2 Rocket 3.6 21:06:33 10° W 21:11:38 55° SSW 21:12:37 47° SSE
Spot 2 Rocket 3.6 21:09:25 26° S 21:12:17 72° WSW 21:17:23 10° NNW
Resurs 01 Rocket 2.9 21:17:09 17° SSW 21:20:04 38° W 21:24:13 10° NNW
ATLAS 2AS CENTAUR R/B 2.9 21:16:20 10° NNW 21:24:07 78° WSW 21:27:11 38° SSE
GEOS 3 Rocket 3.7 21:20:03 10° NE 21:24:43 54° E 21:24:43 54° E
Cosmos 1470 Rocket 4.3 21:21:51 10° NNW 21:26:06 49° W 21:27:42 33° SSW
SL-16 R/B 2.0 21:24:48 46° S 21:26:22 68° ESE 21:32:00 10° NNE
ARGOS 3.0 21:29:47 63° E 21:30:10 65° ENE 21:35:28 10° N
OAO 3 Copernicus 4.2 21:25:48 10° WSW 21:30:35 72° SSW 21:30:35 72° SSW
Cosmos 1869 4.0 21:30:46 47° WSW 21:31:25 53° W 21:35:22 10° N
MetOp-B 4.1 21:32:28 59° ENE 21:32:33 59° ENE 21:37:48 10° N
SL-08 RB Rocket 4.4 21:34:41 41° NNE 21:34:41 41° NNE 21:37:59 10° N
Cosmos 1727 Rocket 3.8 21:36:00 10° N 21:42:12 80° E 21:42:59 68° SSE
ATLAS 2A CENTAUR R/B 3.8 21:25:06 10° WSW 21:42:52 49° S 21:44:53 44° SE
Meteor 2-10 Rocket 4.0 21:42:55 33° SSW 21:45:30 66° W 21:51:17 10° N
Cosmos 1408 4.4 21:44:03 10° NNW 21:47:03 28° W 21:47:03 28° W
ERS-1 Rocket 3.3 21:50:08 56° NNE 21:50:08 56° NNE 21:54:14 10° N
USA 81 4.1 21:48:58 10° N 21:53:44 73° N 21:53:44 73° N
NOSS 3-4 (A) 4.0 21:47:32 10° NNW 21:54:34 57° NE 21:55:20 55° E
NOSS 3-4 (C) 4.0 21:47:38 10° NNW 21:54:40 57° NE 21:55:26 54° E
Cosmos 407 Rocket 3.8 21:50:34 10° NNW 21:54:44 58° N 21:54:44 58° N
H-2A R/B 2.2 21:57:48 64° NNW 21:57:48 64° NNW 22:02:00 10° NNW
Cosmos 2344 3.4 21:51:17 10° SSW 21:58:59 79° ESE 22:06:58 10° NNE
Cosmos 2297 4.0 21:56:28 10° NNW 22:01:18 60° NNE 22:01:18 60° NNE
USA 267 3.1 21:56:53 10° NE 22:03:26 86° SE 22:09:59 10° SW
Cosmos 2369 Rocket 4.4 22:05:08 10° NNE 22:07:06 14° NE 22:07:06 14° NE
Terra 3.9 22:27:10 20° NNE 22:27:10 20° NNE 22:28:47 10° N
CZ-4C R/B 4.2 22:29:46 18° NNE 22:29:46 18° NNE 22:31:10 10° NNE
Cosmos 2278 Rocket 4.1 22:29:06 10° NW 22:33:14 21° W 22:33:37 21° WSW
ATLAS 5 CENTAUR R/B 4.3 22:32:14 10° N 22:35:41 19° NE 22:35:41 19° NE
Centaur D-1A AC-31 4.1 22:43:58 10° WSW 22:46:01 16° WSW 22:46:01 16° WSW
Lacrosse 5 4.3 22:47:06 10° N 22:48:55 15° NNE 22:48:55 15° NNE
BREEZE-M DEB (TANK) 4.4 23:01:52 10° NW 23:19:23 64° NNW 23:19:23 64° NNW
Cosmos 1943 Rocket 4.3 23:15:47 10° N 23:17:39 20° N 23:17:39 20° N
Cosmos 2369 Rocket 4.5 23:47:14 10° NNW 23:48:53 20° NNW 23:48:53 20° NNW
